{"data":{"norad_id":48271,"epoch":"2026-09-21T21:40:26.219136Z","epoch_age_seconds":60077,"freshness":"FRESH","line1":"1 48271U 21034D   26264.90308124  .00003128  00000+0  21364-3 0  9991","line2":"2 48271  97.5631 322.1367 0005893  15.4751 344.6655 15.06888016294390","mean_motion":15.06888016,"eccentricity":0.0005893,"inclination_deg":97.5631,"raan_deg":322.1367,"arg_perigee_deg":15.4751,"mean_anomaly_deg":344.6655,"bstar":0.00021364,"rev_number":29439,"period_min":95.561182032786,"perigee_km":541.63603613242,"apogee_km":549.79648958803,"semimajor_km":6923.8532628602,"source":"CELESTRAK","updated_at":"2026-09-22T09:00:23.262588Z"}}